{"data":{"norad_id":67623,"intl_designator":"2026-020G","name":"STARLINK-36600","alt_names":[],"object_type":"PAYLOAD","status":"ACTIVE","operator":null,"country":"US","launch_date":"2026-01-30","launch_site_code":"AFETR","launch_vehicle":null,"mission":null,"orbit_class":"UNKNOWN","rcs_meters":null,"size_class":null,"mass_kg":null,"dimensions":null,"purposes":["comms"],"wikipedia_slug":null,"has_3d_model":false,"image_url":null,"decayed_at":null,"tle_current":{"epoch":"2026-09-19T21:36:16.173216Z","epoch_age_seconds":121548,"freshness":"FRESH","line1":"1 67623U 26020G   26262.90018719  .00008937  00000+0  33376-3 0  9998","line2":"2 67623  42.9985 123.1567 0000783  46.1368 313.9548 15.27592125 35813","mean_motion":15.27592125,"eccentricity":7.83e-5,"inclination_deg":42.9985,"raan_deg":123.1567,"arg_perigee_deg":46.1368,"mean_anomaly_deg":313.9548,"bstar":0.00033376,"rev_number":3581,"period_min":94.266000487532,"perigee_km":482.47556163932,"apogee_km":483.55001769639,"semimajor_km":6861.1497896679,"source":"CELESTRAK","updated_at":"2026-09-20T09:00:43.611766Z"}}}